(340315) = 2004 TV83 = 2006 DW11

Discovered at Kitt Peak on 2006-02-20 by Spacewatch.

Orbit

Orbit type: Main Belt

Note: WebGL enabled browser required.

epoch2023-02-25.0
epoch JD2460000.5
perihelion date2022-08-12.57136
perihelion JD2459804.07136
argument of perihelion (°)333.41202
ascending node (°)200.13375
inclination (°)2.42521
eccentricity0.0782719
perihelion distance (AU)2.3318180
Tisserand w.r.t. Jupiter3.4
ΔV w.r.t. Earth (km/sec)9.6
semimajor axis (AU)2.5298330
mean anomaly (°)48.11394
mean daily motion (°/day)0.24494360
aphelion distance (AU)2.728
period (years)4.02
P-vector [x]-0.99352398
P-vector [y]0.11032190
P-vector [z]0.02718791
Q-vector [x]-0.11268519
Q-vector [y]-0.92602910
Q-vector [z]-0.36023903
absolute magnitude17.55
phase slope0.15
uncertainty0
referenceMPO 745323
observations used146
oppositions13
arc length (days)7796
first opposition used2002
last opposition used2023
residual rms (arc-secs)0.70
perturbers coarse indicatorM-v
perturbers precise indicator003Ek
first observation date used2002-02-11.0
last observation date used2023-06-17.0
computer nameMPCLINUX
JD of orbit computation2456670.788784
perihelion JD uncertainty (days)8.3238E-04
argument of perihelion uncertainty (°)2.2812E-04
ascending node uncertainty (°)1.7187E-04
inclination uncertainty (°)5.4061E-06
eccentricity uncertainty 9.0836E-07
perihelion distance uncertainty (AU)2.3124E-06
Minimum Orbit Intersection Distances (in AU)
for orbit epoch: 2460000.5, reference: E2023-M35
Mercury1.92748
Venus1.61511
Earth1.33713
Mars0.67769
Jupiter2.23388
Saturn6.51718
Uranus16.1099
Neptune27.147

Observations

148 total observations over interval: 2002 02 11.23435 – 2023 06 17.392057
These data are available for download (format description).

